Theta_e
318 319 320 320 319 319 319 319 319 318 318 318 318 319 319 318 312 298 296 306 316 325 321 302 300 300 299 296 297 293 286 283 283 284 284 288 288 289 295 301 305 310 311 316 318
318 318 318 318 318 318 318 318 318 318 317 317 317 318 318 316 296 295 309 320 322 324 301 298 296 297 294 293 293 290 285 284 285 284 284 286 287 286 290 292 298 303 312 314 314
317 316 316 317 317 318 318 318 318 319 319 319 319 318 317 308 291 293 315 318 319 313 303 299 297 296 292 293 291 289 286 288 288 290 288 287 287 287 286 287 291 293 305 311 310
316 316 316 316 317 317 318 318 320 319 319 320 320 318 311 295 284 297 316 314 316 304 299 296 295 292 290 289 291 287 290 289 291 291 289 287 288 286 287 289 297 304 308 308 301
315 315 316 316 317 318 318 319 320 319 319 320 319 312 298 291 292 301 311 306 303 300 297 295 293 291 288 289 289 288 288 291 290 291 289 289 287 285 284 286 302 304 302 298 298
314 314 315 316 317 318 319 320 320 319 320 320 316 310 295 289 300 299 299 301 300 298 297 296 292 292 290 288 288 289 290 289 290 289 289 287 285 286 285 286 300 297 296 296 295
314 314 315 316 317 317 319 320 319 318 318 319 312 300 295 291 298 299 299 299 300 298 297 296 294 292 290 288 290 289 287 288 288 287 287 287 285 283 284 287 295 295 295 293 292
314 313 314 316 316 316 317 319 317 317 316 315 311 297 291 298 299 299 298 300 302 301 298 298 298 294 290 291 290 287 285 282 286 285 287 287 282 283 285 294 294 293 292 290 290
313 313 314 315 314 314 316 317 314 315 314 310 298 294 289 303 296 297 297 297 300 300 298 299 295 289 290 286 284 284 280 282 284 285 283 284 280 282 285 289 290 290 290 288 287
313 312 314 315 313 313 313 314 311 307 302 298 297 292 293 291 295 296 296 298 298 296 295 292 289 284 282 283 276 279 280 282 280 283 282 278 278 279 282 284 284 288 287 286 285
312 312 313 315 314 311 303 297 292 291 293 289 289 289 291 295 296 294 295 295 295 292 286 287 283 278 280 280 282 281 281 277 278 282 279 277 277 279 280 280 281 281 282 282 282
312 312 312 314 312 309 298 293 291 292 285 290 291 291 293 293 289 293 297 289 287 283 286 282 279 282 283 283 279 279 277 275 278 280 279 278 277 279 280 279 280 280 279 280 280
311 312 311 312 310 301 296 294 299 295 284 286 289 289 290 292 286 288 292 288 283 281 281 280 280 284 280 280 281 278 277 275 277 279 277 276 276 276 278 278 278 278 278 278 279
311 312 310 310 301 295 294 299 299 294 277 283 287 289 290 289 285 290 290 287 285 279 279 280 281 280 280 279 280 278 280 279 279 275 270 275 271 275 275 276 278 278 276 277 276
310 311 309 307 295 293 295 298 297 291 271 283 285 293 289 286 285 288 289 288 281 281 280 280 279 279 279 280 281 278 280 279 278 272 272 272 267 274 274 275 276 277 277 276 277
309 309 305 296 293 293 295 295 291 281 271 278 284 284 284 284 285 286 285 288 286 282 282 280 282 280 279 281 281 281 278 277 275 271 267 264 267 274 273 275 274 276 277 277 276
309 307 298 295 289 293 295 291 281 274 279 278 280 283 281 281 282 282 280 278 278 276 275 278 280 280 281 278 280 279 273 268 270 267 270 259 266 276 277 276 276 277 276 276 276
309 302 296 293 293 294 291 285 274 271 274 282 282 280 279 280 280 281 279 277 278 277 272 270 274 277 280 278 276 277 272 270 264 266 269 261 268 276 275 275 276 277 277 276 276
305 295 294 295 294 293 288 276 275 277 282 282 281 277 276 279 278 278 277 277 278 278 274 271 275 279 280 279 277 276 270 274 263 255 262 268 273 278 276 275 275 276 276 276 276
293 293 295 295 294 289 282 277 276 283 284 283 278 276 271 273 277 276 275 278 279 280 278 275 271 275 279 279 278 276 277 271 268 264 263 267 263 274 273 271 274 275 275 275 276
293 290 295 294 290 285 276 269 276 283 284 281 278 274 277 275 276 274 276 279 280 278 279 275 271 274 277 271 272 273 271 270 270 270 265 262 269 274 272 270 271 273 276 271 271
289 286 294 291 284 266 271 273 285 283 284 283 281 279 277 277 276 271 276 278 281 280 277 279 276 268 273 274 276 276 274 275 269 266 266 266 270 273 267 265 262 271 273 271 269
287 287 293 292 279 271 276 279 283 282 282 281 280 281 279 273 274 277 278 281 282 280 278 278 270 265 273 273 274 272 276 274 269 272 266 265 273 268 264 265 266 266 269 269 268
288 284 286 284 280 280 275 278 279 284 283 283 281 281 278 273 277 272 278 281 283 281 287 282 275 270 271 272 269 271 273 274 272 266 271 272 276 280 279 269 271 268 268 265 266
285 280 281 278 280 280 280 280 278 278 282 282 279 280 278 273 274 270 277 279 281 284 281 278 267 270 271 271 268 273 274 272 271 274 270 276 266 277 277 271 268 262 261 261 266
287 284 280 277 281 279 282 280 279 278 281 279 277 279 279 274 279 277 278 278 278 279 279 278 267 266 267 272 272 270 273 274 273 274 273 274 273 279 272 258 264 265 262 266 265
285 287 288 282 281 280 280 280 281 281 281 282 282 281 279 281 280 280 280 279 279 279 277 272 266 263 265 266 266 269 270 273 270 267 269 267 274 260 266 266 266 268 267 264 261
Wind_Speed
13 14 15 15 15 14 14 13 11 10 9 10 10 9 9 9 8 5 11 6 10 17 11 7 2 4 5 5 6 2 7 3 2 2 1 6 4 6 1 6 5 5 4 5 4
15 15 15 14 14 14 13 11 10 9 10 10 9 7 7 6 3 10 1 20 19 13 5 7 4 6 5 5 5 7 6 3 1 1 2 4 4 4 4 4 4 5 6 7 4
16 16 15 14 13 13 12 11 9 11 11 10 8 6 6 1 5 6 15 24 19 8 2 1 1 4 7 4 7 5 5 3 3 3 0 2 4 5 1 6 4 1 4 4 7
16 16 15 14 12 12 12 11 11 10 10 10 9 3 3 3 6 7 19 23 15 4 3 5 6 6 6 6 5 9 6 3 3 5 2 3 3 6 9 5 5 6 5 9 12
16 16 15 15 14 12 10 9 10 10 10 9 8 3 5 9 3 8 19 15 5 5 7 4 7 4 6 4 4 8 2 6 3 7 6 4 6 5 6 8 4 9 12 11 10
16 15 16 15 14 13 13 11 10 10 10 11 11 5 7 18 5 9 10 7 7 6 8 9 4 4 8 5 7 3 7 4 6 7 7 6 4 2 4 9 7 11 12 11 14
17 16 15 15 16 14 12 10 11 10 9 6 6 5 16 5 4 9 9 5 5 3 6 4 1 5 4 5 4 3 5 4 10 8 4 3 3 5 8 3 8 11 12 13 11
17 17 16 16 16 14 11 10 10 8 8 6 6 6 7 2 3 11 9 4 9 6 4 6 6 10 7 4 7 5 5 4 4 13 4 2 4 7 12 5 8 10 10 10 10
18 17 16 15 17 14 11 9 11 7 9 8 9 7 6 9 9 7 6 5 6 4 9 4 8 7 9 5 6 9 2 5 5 5 4 7 1 5 8 7 7 8 8 7 5
18 18 17 15 18 13 6 5 7 9 9 3 5 7 9 9 7 8 5 5 7 4 8 13 9 7 6 9 1 4 5 4 2 6 6 4 4 2 5 6 4 7 6 5 5
18 18 18 17 16 13 6 5 9 11 13 6 4 3 5 10 4 9 6 5 7 11 8 8 12 5 4 2 2 1 2 4 3 2 4 4 5 5 3 4 6 4 5 4 4
18 18 18 14 10 13 6 9 2 2 7 6 4 4 3 3 8 22 11 9 10 6 5 9 7 4 5 2 4 4 0 4 6 2 2 5 11 8 8 5 5 6 4 3 2
18 17 16 12 5 9 7 4 4 1 7 6 3 4 5 7 5 11 9 4 7 9 8 8 1 4 1 6 3 1 2 2 5 8 1 7 9 5 4 3 2 2 2 2 2
20 18 16 8 10 2 5 6 5 2 9 13 9 7 6 4 6 3 4 4 8 4 2 7 4 2 2 3 1 2 2 1 4 5 3 5 8 6 5 7 6 7 6 6 3
19 17 10 15 5 4 2 4 3 4 9 8 9 5 7 9 5 10 4 7 5 3 3 2 4 4 5 2 1 2 2 1 2 3 4 4 4 8 3 7 11 9 8 7 6
19 15 7 6 5 1 3 1 3 11 2 6 5 9 7 8 8 8 8 9 4 4 7 2 1 3 3 3 2 3 2 5 4 3 4 3 4 8 6 7 3 5 9 8 7
16 9 8 2 2 3 1 4 9 10 3 9 6 7 1 7 8 10 6 9 5 6 7 6 2 2 3 3 0 4 5 6 9 7 6 2 2 14 5 5 3 8 9 8 7
11 5 4 2 2 2 3 9 12 4 5 1 2 3 6 8 5 9 3 5 6 5 4 4 9 3 5 3 1 4 5 7 6 3 7 1 8 8 1 2 3 4 7 6 7
4 3 3 4 3 3 7 10 9 7 1 4 2 6 6 3 2 5 5 1 1 3 5 4 7 2 1 1 3 2 2 2 7 3 5 4 10 8 1 4 3 5 5 9 8
3 2 2 7 1 5 10 4 2 2 2 1 3 2 1 6 4 6 3 3 2 0 2 4 5 2 1 1 4 3 1 5 5 5 8 6 7 10 6 7 7 9 10 9 6
4 5 2 4 4 9 6 5 3 4 2 2 3 1 2 2 2 1 2 2 2 2 2 5 5 5 2 3 6 3 2 4 3 4 6 5 9 9 8 6 7 9 9 6 6
3 5 3 2 8 2 3 4 3 1 1 1 2 2 2 2 2 1 3 5 1 3 1 1 3 4 9 2 2 2 6 6 6 8 4 2 14 2 4 5 4 9 7 5 5
3 2 3 3 5 3 4 2 1 0 1 0 1 3 3 3 3 1 2 2 1 0 2 2 3 6 12 4 5 4 5 4 2 2 9 3 13 2 3 6 7 8 8 6 5
4 5 7 7 1 7 3 2 2 2 1 2 1 2 1 5 2 3 3 2 2 1 2 1 1 8 8 8 2 5 4 5 6 4 7 15 30 19 14 7 7 7 9 6 6
5 1 4 4 6 3 3 4 1 2 2 1 2 4 5 1 4 2 2 4 1 2 3 4 4 3 7 8 5 11 16 10 14 14 11 30 8 23 11 7 4 4 5 4 7
4 5 3 2 2 1 2 4 6 3 4 2 3 1 5 5 5 5 5 5 6 2 3 1 5 2 7 4 4 10 21 14 20 20 20 25 30 23 10 2 3 5 4 5 5
1 2 4 2 2 3 4 4 4 5 1 1 5 4 3 6 4 3 4 1 3 7 7 4 3 4 9 4 8 11 12 11 4 4 8 8 12 3 3 3 3 5 4 4 5
Wind_Direction
356 349 347 349 348 347 347 352 353 351 350 356 345 359 357 353 349 44 44 310 317 316 322 280 347 7 35 62 38 90 65 79 78 99 59 341 35 359 9 84 52 36 55 57 72
352 348 344 347 346 345 348 349 348 349 347 338 335 345 341 352 46 50 231 342 335 332 18 21 25 15 51 27 24 62 75 84 19 11 29 344 64 311 59 31 57 68 64 40 5
352 348 345 346 349 349 352 348 346 346 340 335 329 333 332 348 57 327 334 339 336 342 128 95 60 63 60 26 360 25 97 152 32 343 353 14 39 351 93 36 23 4 106 45 29
351 347 345 344 346 345 344 339 334 337 336 342 355 334 44 33 66 290 334 332 335 32 65 23 29 51 62 51 348 91 42 68 359 2 58 43 334 53 49 351 322 80 79 68 61
351 349 344 347 345 348 349 344 339 338 337 351 15 84 58 55 12 301 329 330 354 26 51 52 47 88 78 78 56 70 108 54 20 20 28 77 40 126 47 357 39 71 69 71 69
353 348 345 345 345 341 339 339 342 345 352 2 12 64 70 70 296 321 327 334 24 29 23 37 78 87 82 52 66 64 79 60 14 6 29 84 17 113 4 345 72 81 78 65 59
353 350 347 343 343 339 337 347 351 354 8 34 45 77 65 59 338 318 346 360 354 18 51 25 23 93 127 80 156 118 68 24 21 339 54 305 19 15 331 306 98 85 77 63 49
356 350 351 347 347 339 336 344 354 4 22 69 46 68 88 259 278 10 349 342 5 32 76 20 63 94 58 128 33 53 56 32 29 6 360 37 263 4 349 74 99 94 85 72 51
357 351 349 349 352 345 334 334 8 34 16 10 37 77 16 336 13 329 27 345 313 11 36 40 60 69 20 40 30 14 63 4 0 48 316 44 336 331 359 82 96 91 87 73 57
359 356 351 345 359 349 335 5 2 28 357 20 88 46 9 312 308 331 321 11 38 343 20 32 49 69 30 37 112 341 12 345 316 318 7 345 237 325 18 90 105 129 120 113 85
358 356 353 347 355 4 33 16 19 359 35 65 304 96 304 298 284 350 355 1 12 53 45 19 59 38 313 316 226 197 172 232 248 19 314 246 251 224 177 146 162 153 146 139 101
355 354 354 358 5 17 60 72 74 174 66 19 358 5 325 328 7 354 14 58 40 58 347 32 60 316 263 340 79 47 32 310 275 357 334 337 272 217 200 210 199 182 182 136 93
353 349 350 347 359 38 70 59 320 287 83 10 14 28 335 19 46 334 22 54 65 47 25 101 284 309 115 32 43 55 110 314 248 329 60 328 286 212 213 173 174 213 189 164 161
352 347 350 348 50 315 45 332 336 314 73 326 347 6 354 336 48 331 20 110 37 146 81 84 317 6 85 79 57 295 136 294 300 24 276 24 281 275 212 219 212 208 204 206 209
353 349 11 42 139 53 286 323 339 43 57 317 323 301 347 66 313 359 342 30 68 64 97 265 355 8 51 345 61 279 358 256 83 91 24 358 66 268 83 253 230 218 213 218 221
350 351 1 26 53 184 298 305 53 44 307 342 325 350 16 15 6 310 21 34 139 70 37 76 46 45 319 290 235 359 74 37 55 91 19 245 121 271 201 215 246 188 202 208 214
347 4 39 12 9 323 357 52 40 90 329 314 334 5 45 350 0 23 33 16 48 51 3 340 9 32 15 329 8 44 54 343 355 6 231 332 347 249 247 230 228 212 196 209 215
342 26 31 67 334 0 48 48 67 247 241 347 345 333 51 359 17 357 49 33 39 54 98 82 332 33 343 70 254 28 121 144 252 256 272 120 242 260 356 349 302 233 185 193 221
352 10 31 340 0 70 70 50 187 197 266 334 330 59 331 15 134 50 32 98 286 11 116 47 286 149 313 192 108 212 60 126 97 71 30 266 291 285 340 292 261 227 210 225 231
63 48 321 319 29 68 71 181 155 258 297 234 99 114 296 302 25 48 358 230 222 299 153 186 323 200 289 55 41 99 121 36 8 332 306 286 276 247 289 262 236 238 233 238 240
52 41 278 354 48 47 99 214 220 234 266 12 153 104 222 291 20 281 259 238 200 155 115 134 105 285 64 188 179 37 3 40 129 144 202 286 248 210 217 213 228 249 239 226 243
74 35 317 73 49 32 76 194 231 208 322 341 46 97 187 145 296 318 265 221 127 156 244 214 142 273 229 129 98 150 199 169 128 257 241 201 273 121 227 245 226 264 256 225 233
61 285 329 79 82 2 307 338 273 128 132 45 24 13 64 145 13 239 270 333 105 45 155 164 316 349 331 16 360 214 201 154 116 69 209 159 263 262 278 285 246 254 263 258 294
73 22 336 46 70 115 118 329 351 9 8 77 73 86 107 15 21 276 294 334 339 335 79 60 263 187 211 220 184 252 205 214 147 175 250 225 273 278 287 258 279 262 256 273 279
28 211 172 325 351 73 101 134 76 315 338 65 11 210 159 359 333 266 246 294 266 332 65 100 222 302 264 258 225 266 264 218 205 234 217 275 248 271 289 261 286 298 307 310 301
110 120 1 139 299 349 6 211 176 267 158 220 167 163 172 183 192 226 184 200 236 73 166 80 258 134 273 294 296 267 262 244 238 254 256 264 278 282 295 359 280 260 283 284 300
201 45 106 328 45 68 231 179 230 146 196 206 198 142 206 239 219 281 281 241 224 172 188 156 136 36 267 357 318 290 242 210 189 218 166 209 249 335 325 278 256 266 238 258 275